sat.trackr.live / text

‹ back to catalog

STARLINK-33942

NORAD 63974 · 2025-099Y

PAYLOAD ACTIVE UNKNOWN

§ Identity

Operator
Country
US
Launch date
2025-05-13
Launch site
AFETR
Launch vehicle
Mass (kg)
RCS (m²)

Purposes: comms

External: N2YO · Heavens-Above · Gunter

§ Orbital elements

Epoch: 2026-05-25T04:30:19.217088Z

Period
94.27 min
Inclination
43.0040°
Eccentricity
0.0001669
Mean motion
15.27594710 rev/d
Perigee alt
481.9 km
Apogee alt
484.2 km
Semi-major
6,861.1 km
B*
6.6816e-4
RAAN
100.9080°
Arg perigee
260.7323°
Mean anomaly
99.3340°
Rev number
5,907

§ Raw data

STARLINK-339421 63974U 25099Y   26145.18772242  .00018178  00000+0  66816-3 0  99992 63974  43.0040 100.9080 0001669 260.7323  99.3340 15.27594710 59075

JSON: /api/v1/satellites/63974 · /tle

For live sub-satellite position, see the globe view (requires WebGL).

§ Visibility from observer

Set your observer location to see the next 7 days of passes ≥ 10°. The values pass through the URL so the page stays shareable.

No JS? Fill the form by hand. The geolocation button needs JavaScript.